Volver al catálogo

COSMOS 530

ActivoMilitarLEO
NORAD 6265·PAYLOAD·🇷🇺 Russia

Lanzado Nov 1, 1972 desde Plesetsk Cosmodrome

Loading…

Próximos Pases (próximas 24 horas)

TLE

ActualizadoSource: Space-Track

Época: Sep 14, 2026, 11:30 UTC

1 06265U 72087C   26257.47985134 -.00000003  00000-0  74846-4 0  9993
2 06265  74.0363 177.4595 0087536 242.6718 237.5692 12.65678662488880

Sigue COSMOS 530 en tiempo real con AllMySat

Download on the App Store